Change the Weather History Date:

Sunday, March 30, 2014

  Actual Average Record
Temperature  
Mean Temperature 47 °F 50 °F  
Max Temperature 53 °F 63 °F 86 °F (1998)
Min Temperature 40 °F 38 °F 22 °F (1964)
Degree Days  
Heating Degree Days 18 15  
Month to date heating degree days 645 581  
Since 1 July heating degree days 4159 4005  
Cooling Degree Days 0 0  
Month to date cooling degree days 0 0  
Year to date cooling degree days 0 0  
Moisture  
Dew Point 32 °F    
Average Humidity 52    
Maximum Humidity 74    
Minimum Humidity 30    
Precipitation  
Precipitation 0.02 in 0.12 in 1.03 in (2003)
Month to date precipitation 2.93 3.46  
Year to date precipitation 10.01 9.53  
Snow  
Snow T in - - ()
Month to date snowfall 9.4  
Since 1 July snowfall 21.4  
Snow Depth 0.00 in    
Sea Level Pressure  
Sea Level Pressure 29.74 in    
Wind  
Wind Speed 9 mph (NW)    
Max Wind Speed 22 mph    
Max Gust Speed 38 mph    
Visibility 10 miles    
Events Rain    
T = Trace of Precipitation, MM = Missing Value Source: NWS Daily Summary

Daily Weather History Graph

Daily Weather History Graph

Search for Another Location

Airport or City:

Trip Planner

Search our weather history database for the weather conditions in past years. The results will help you decide how hot, cold, wet, or windy it might be!

Date:

Astronomy

Mar. 30, 2014 Rise Set
Actual Time 7:05 AM EDT 7:37 PM EDT
Civil Twilight 6:39 AM EDT 8:03 PM EDT
Nautical Twilight 6:08 AM EDT 8:34 PM EDT
Astronomical Twilight 5:36 AM EDT 9:06 PM EDT
Moon 6:50 AM EDT (3/30) 7:47 PM EDT (3/30)
Length of Visible Light 13h 24m
Length of Day
12h 32m
Waning Crescent, 0% of the Moon is Illuminated
Mar 30
Waning Crescent
Mar 30
New
Apr 7
First Quarter
Apr 15
Full
Apr 22
Last Quarter

Hourly Weather History & Observations

Time (EDT) Temp. Windchill Dew Point Humidity Pressure Visibility Wind Dir Wind Speed Gust Speed Precip Events Conditions
12:42 AM 53.6 °F - 46.4 °F 77% 29.59 in 10.0 mi West 10.4 mph 17.3 mph N/A   Overcast
12:54 AM 53.1 °F - 46.0 °F 77% 29.58 in 10.0 mi West 9.2 mph 19.6 mph 0.00 in Rain Light Rain
1:54 AM 50.0 °F - 42.1 °F 74% 29.59 in 10.0 mi West 5.8 mph - 0.00 in Rain Light Rain
2:54 AM 46.0 °F 44.8 °F 37.9 °F 73% 29.60 in 10.0 mi West 3.5 mph - 0.00 in   Partly Cloudy
3:54 AM 46.0 °F 43.9 °F 37.0 °F 71% 29.60 in 10.0 mi Variable 4.6 mph - 0.00 in   Overcast
4:54 AM 46.9 °F - 35.1 °F 63% 29.59 in 10.0 mi NW 8.1 mph - 0.00 in   Overcast
5:54 AM 46.0 °F 40.2 °F 32.0 °F 58% 29.60 in 10.0 mi NW 12.7 mph 25.3 mph N/A   Overcast
6:54 AM 44.1 °F 37.4 °F 30.9 °F 60% 29.63 in 10.0 mi NW 13.8 mph 27.6 mph 0.00 in Rain Light Rain
7:54 AM 44.1 °F 39.0 °F 30.0 °F 58% 29.68 in 10.0 mi NNW 9.2 mph 17.3 mph 0.00 in   Overcast
8:54 AM 42.1 °F 34.9 °F 30.0 °F 62% 29.72 in 10.0 mi NW 13.8 mph 21.9 mph 0.00 in Rain Light Rain
9:11 AM 39.2 °F 35.0 °F 32.0 °F 75% 29.73 in 10.0 mi Variable 5.8 mph 19.6 mph 0.00 in Rain Light Rain
9:54 AM 39.9 °F 33.9 °F 32.0 °F 73% 29.75 in 4.0 mi NNW 9.2 mph 27.6 mph 0.00 in   Unknown
10:54 AM 42.1 °F 37.7 °F 34.0 °F 73% 29.76 in 10.0 mi Variable 6.9 mph 16.1 mph 0.02 in Rain Light Rain
11:01 AM 42.8 °F 36.6 °F 33.8 °F 70% 29.77 in 10.0 mi NW 11.5 mph 24.2 mph 0.00 in   Overcast
11:54 AM 44.1 °F 40.8 °F 33.1 °F 65% 29.77 in 10.0 mi Variable 5.8 mph 21.9 mph 0.00 in Rain Light Rain
12:54 PM 46.0 °F 42.5 °F 30.9 °F 56% 29.76 in 10.0 mi Variable 6.9 mph - 0.00 in   Overcast
1:54 PM 48.9 °F - 30.9 °F 50% 29.76 in 10.0 mi Variable 6.9 mph 20.7 mph N/A   Overcast
2:54 PM 50.0 °F - 32.0 °F 50% 29.78 in 10.0 mi North 12.7 mph 26.5 mph N/A   Overcast
3:54 PM 51.1 °F - 30.9 °F 46% 29.78 in 10.0 mi NW 9.2 mph 26.5 mph N/A   Overcast
4:54 PM 51.1 °F - 32.0 °F 48% 29.81 in 10.0 mi NW 9.2 mph 19.6 mph N/A   Mostly Cloudy
5:54 PM 52.0 °F - 30.9 °F 45% 29.84 in 10.0 mi NNW 9.2 mph 23.0 mph N/A   Mostly Cloudy
6:54 PM 52.0 °F - 28.0 °F 40% 29.86 in 10.0 mi Variable 5.8 mph 23.0 mph N/A   Clear
7:54 PM 52.0 °F - 28.0 °F 40% 29.86 in 10.0 mi NW 8.1 mph - N/A   Clear
8:54 PM 52.0 °F - 26.1 °F 37% 29.86 in 10.0 mi NW 8.1 mph 18.4 mph N/A   Clear
9:54 PM 52.0 °F - 24.1 °F 34% 29.87 in 10.0 mi NW 17.3 mph 32.2 mph N/A   Clear
10:54 PM 51.1 °F - 21.9 °F 32% 29.88 in 10.0 mi NW 13.8 mph 26.5 mph N/A   Clear
11:54 PM 51.1 °F - 21.9 °F 32% 29.91 in 10.0 mi NW 10.4 mph 28.8 mph N/A   Clear